Cloud_Cover
0 0 0 1 5 4 38 87 100 100 97 100 100 97 100 49 100 100 100 100 100 34 57 0 0 0 63 1 1 5 0 0 0 0 4 89 100 100 99 97 90 92 100 48
0 0 0 5 0 2 100 92 26 100 100 100 100 100 17 62 97 100 100 100 93 63 2 4 100 1 96 5 0 3 0 0 0 0 82 18 32 87 5 94 86 98 100 100
0 0 4 3 4 2 99 53 10 49 100 99 90 97 26 67 100 100 100 100 97 89 7 48 0 2 0 0 1 0 0 0 2 2 1 5 26 14 5 70 100 96 100 78
0 0 0 0 3 8 9 3 7 0 4 74 79 99 100 83 100 88 100 100 100 91 80 2 4 0 0 0 0 0 0 0 0 0 0 0 28 40 96 100 99 93 100 55
0 0 0 0 0 70 9 67 70 7 2 74 100 42 100 90 100 100 100 100 100 100 54 7 5 100 5 0 0 0 0 0 0 0 0 0 5 78 100 100 100 100 100 41
0 0 0 0 0 0 4 3 19 40 4 16 72 100 70 97 100 98 86 100 100 98 100 44 84 0 5 5 4 8 0 0 0 0 0 0 5 87 69 100 100 84 74 86
0 0 0 0 0 0 0 0 1 1 0 3 5 93 71 100 100 100 79 14 100 100 100 100 96 9 9 4 5 60 14 0 0 0 0 0 0 0 6 5 97 100 44 87
3 0 0 0 0 0 0 0 0 0 0 0 5 34 6 55 100 100 15 100 90 96 100 100 65 78 62 2 5 5 12 2 0 0 0 0 0 0 0 0 5 5 20 98
68 2 0 0 0 0 0 0 2 0 0 0 27 8 93 55 100 100 87 75 100 100 100 100 85 100 100 76 3 5 17 11 56 5 0 0 0 0 0 0 0 1 10 12
0 4 3 5 0 1 0 0 3 32 27 2 0 100 36 74 76 100 100 78 90 100 100 100 90 13 100 100 94 4 3 5 58 75 4 1 3 2 11 0 0 0 0 2
0 0 0 5 0 1 7 0 0 1 2 0 0 100 100 96 5 98 100 100 34 98 100 100 98 100 100 96 100 93 18 0 1 33 10 5 5 5 4 0 0 0 0 75
0 0 3 0 0 3 10 5 2 5 3 0 2 93 100 61 26 100 100 100 94 16 100 99 100 100 38 92 55 100 74 3 0 1 5 5 5 0 3 0 0 0 0 0
0 0 0 0 0 1 17 5 7 5 0 1 1 92 100 7 10 100 98 100 98 49 75 99 98 97 84 4 7 100 60 6 18 0 0 2 5 5 0 0 0 0 4 1
0 0 0 0 0 1 6 8 95 59 31 4 2 16 86 96 2 95 99 100 74 100 97 82 95 97 64 30 3 40 68 43 7 0 0 0 0 0 0 0 0 0 5 1
0 0 0 0 0 0 5 0 1 36 47 61 2 2 9 38 62 99 99 100 88 36 100 74 100 100 55 92 38 58 44 99 7 0 0 0 0 0 1 0 0 0 0 0
44 5 2 5 5 4 5 0 2 0 2 32 4 0 0 44 38 54 70 97 69 39 72 100 100 100 100 14 98 38 33 52 3 5 5 1 0 3 5 6 5 1 1 0
93 51 5 53 5 43 17 5 0 0 0 0 0 0 0 0 3 4 100 100 100 99 80 100 100 100 100 100 88 21 77 99 56 8 9 3 0 1 5 87 100 54 5 5
6 6 97 5 5 12 6 5 2 2 3 0 1 0 0 0 0 8 100 100 100 100 95 67 66 100 94 100 97 33 90 100 100 79 86 98 4 5 5 9 36 100 100 93
4 5 5 1 6 39 5 0 5 5 6 3 0 0 0 0 0 3 100 100 57 92 100 100 68 2 98 100 100 97 90 100 100 93 100 100 100 100 100 100 98 87 41 61
5 5 5 0 2 1 0 0 0 3 5 0 0 0 0 0 7 66 100 100 100 100 100 97 62 54 29 12 85 100 71 100 100 100 100 99 100 100 100 100 100 100 100 100
5 5 4 5 0 0 0 0 0 0 0 0 0 0 0 0 0 26 100 34 100 100 100 100 100 70 91 52 33 100 100 100 100 100 100 100 100 100 100 100 100 100 100 100
5 5 5 5 3 6 5 8 4 0 0 0 2 0 0 0 0 0 26 98 99 100 100 97 82 96 100 99 86 100 100 100 100 100 100 100 100 100 100 100 100 100 100 100
14 5 79 86 48 4 5 1 0 0 0 0 0 0 0 0 0 0 0 1 6 100 100 94 92 100 100 88 94 100 100 100 100 100 100 100 100 100 100 100 100 100 100 100
100 98 55 84 18 19 5 0 0 0 0 0 0 0 0 0 0 0 2 15 24 99 100 100 98 100 100 100 94 100 100 100 100 100 100 100 100 100 100 100 100 100 100 100
94 100 100 100 100 5 5 1 0 0 0 0 0 0 0 0 0 10 12 50 87 79 100 96 100 100 100 100 100 100 100 100 100 100 100 100 100 100 100 100 100 100 100 100
19 100 100 100 13 13 5 4 0 0 0 0 0 0 0 0 0 2 11 1 59 100 100 100 100 100 100 100 100 100 100 100 100 100 100 100 100 100 100 100 100 100 100 100